Weather in Kirillovka

Russia / Penza Oblast     53°20′38″N   42°41′45″E
temp.,
°C
wind,
m/s
gust,
m/s
humid.,
%
clouds,
%
prec.,
mm/h
press.,
hPa
HPBL,
m
24 june, thu
thu2400:00+22e22740 0.0 102011
03:00+21e22760 0.0 102017
06:00+23e12760 0.1 102173
09:00+27e23640 0.1 1020563
12:00+30ene23520 0.0 10201410
15:00+31ene23490 0.0 10191845
18:00+29ese2360100 0.0 1018100
21:00+19n228580 0.4 102025
25 june, fri
fri2500:00+21ne227896 0.0 101811
03:00+20n22835 0.0 101911
06:00+22e22805 0.0 101882
09:00+27se11639 0.0 1018424
12:00+30se115235 0.0 10181330
15:00+31nne124684 0.0 10172022
18:00+29nne236354 0.0 1016127
21:00+26e336554 0.0 101537
26 june, sat
sat2600:00+23nne228023 1.4 101619
03:00+21e22865 1.8 101514
06:00+23se2487100 0.0 1015114
09:00+28ssw22655 0.0 1015472
12:00+30wsw1148100 1.3 10151595
15:00+31ese2248100 1.3 10141540
18:00+27nw457189 0.1 1013196
21:00+22e227087 1.6 101314
27 june, sun
sun2700:00+21ese228270 0.0 101311
03:00+21nne1186100 0.1 101311
06:00+22se2487100 0.4 1014131
09:00+26s337189 0.4 1014385
12:00+29ssw2257100 0.6 1014895
15:00+30nne2156100 0.6 10141116
18:00+29ne1066100 0.8 1013225
21:00+25ese117387 0.8 101311
28 june, mon
mon2800:00+23ese117990 0.2 101311
03:00+22se228560 0.2 101314
06:00+23ese238450 0.0 1013115
09:00+27se2370100 0.5 1012347
12:00+29se2362100 0.9 1012768
15:00+31sse1353100 0.9 10121702
18:00+30ene226370 0.0 101152
21:00+24e48810 0.0 1011143